Météo par heure à Almametevo

Ce jour, 14 Mai, Vendredi

Heure Température Précipitation Vent Pression Humidité
00:00 +18°C° 0.2 mm 3 m/s 756 mmHg 74%
01:00 +17°C° 0 mm 3 m/s 756 mmHg 76%
02:00 +17°C° 0 mm 2 m/s 756 mmHg 78%
03:00 +16°C° 0 mm 2 m/s 756 mmHg 81%
04:00 +17°C° 0.1 mm 2 m/s 756 mmHg 81%
05:00 +17°C° 0.1 mm 2 m/s 756 mmHg 81%
06:00 +18°C° 0.1 mm 2 m/s 756 mmHg 81%
07:00 +20°C° 0 mm 3 m/s 756 mmHg 70%
08:00 +22°C° 0 mm 4 m/s 756 mmHg 58%
09:00 +25°C° 0 mm 5 m/s 756 mmHg 47%
10:00 +26°C° 0 mm 5 m/s 756 mmHg 44%
11:00 +27°C° 0 mm 5 m/s 755 mmHg 42%
12:00 +28°C° 0 mm 5 m/s 755 mmHg 39%
13:00 +28°C° 0 mm 5 m/s 755 mmHg 40%
14:00 +28°C° 0 mm 5 m/s 755 mmHg 42%
15:00 +28°C° 0 mm 5 m/s 755 mmHg 43%
16:00 +27°C° 0 mm 4 m/s 754 mmHg 48%
17:00 +26°C° 0 mm 4 m/s 754 mmHg 53%
18:00 +25°C° 0 mm 3 m/s 754 mmHg 58%
19:00 +22°C° 0 mm 3 m/s 754 mmHg 63%
20:00 +20°C° 0 mm 2 m/s 754 mmHg 69%
21:00 +19°C° 0 mm 2 m/s 754 mmHg 75%
22:00 +18°C° 0 mm 2 m/s 754 mmHg 78%
23:00 +18°C° 0 mm 2 m/s 754 mmHg 81%

Demain, 15 Mai, Samedi

Heure Température Précipitation Vent Pression Humidité
00:00 +18°C° 0 mm 2 m/s 754 mmHg 85%
01:00 +19°C° 0 mm 1 m/s 754 mmHg 86%
02:00 +18°C° 0 mm 1 m/s 754 mmHg 87%
03:00 +18°C° 0 mm 1 m/s 754 mmHg 88%
04:00 +19°C° 0 mm 1 m/s 754 mmHg 85%
05:00 +19°C° 0 mm 2 m/s 754 mmHg 82%
06:00 +19°C° 0 mm 2 m/s 754 mmHg 78%
07:00 +21°C° 0 mm 2 m/s 754 mmHg 70%
08:00 +24°C° 0 mm 3 m/s 754 mmHg 61%
09:00 +26°C° 0 mm 4 m/s 754 mmHg 52%
10:00 +27°C° 0 mm 4 m/s 754 mmHg 46%
11:00 +28°C° 0 mm 5 m/s 754 mmHg 41%
12:00 +30°C° 0 mm 5 m/s 754 mmHg 35%
13:00 +30°C° 0 mm 5 m/s 754 mmHg 35%
14:00 +30°C° 0 mm 5 m/s 753 mmHg 35%
15:00 +30°C° 0 mm 5 m/s 753 mmHg 35%
16:00 +29°C° 0 mm 5 m/s 753 mmHg 39%
17:00 +28°C° 0 mm 5 m/s 753 mmHg 43%
18:00 +27°C° 0 mm 4 m/s 753 mmHg 47%
19:00 +25°C° 0 mm 4 m/s 753 mmHg 50%
20:00 +22°C° 0 mm 4 m/s 753 mmHg 53%
21:00 +21°C° 0 mm 4 m/s 753 mmHg 56%
22:00 +20°C° 0 mm 3 m/s 753 mmHg 58%
23:00 +19°C° 0 mm 3 m/s 753 mmHg 60%

Après-demain, 16 Mai, Dimanche

Heure Température Précipitation Vent Pression Humidité
00:00 +18°C° 0 mm 3 m/s 753 mmHg 61%
01:00 +17°C° 0 mm 3 m/s 753 mmHg 62%
02:00 +17°C° 0 mm 2 m/s 753 mmHg 62%
03:00 +16°C° 0 mm 2 m/s 753 mmHg 63%
04:00 +17°C° 0 mm 3 m/s 753 mmHg 61%
05:00 +18°C° 0 mm 3 m/s 753 mmHg 60%
06:00 +19°C° 0 mm 3 m/s 753 mmHg 58%
07:00 +21°C° 0 mm 4 m/s 753 mmHg 53%
08:00 +23°C° 0 mm 4 m/s 753 mmHg 48%
09:00 +26°C° 0 mm 5 m/s 753 mmHg 43%
10:00 +27°C° 0 mm 5 m/s 753 mmHg 40%
11:00 +28°C° 0 mm 5 m/s 753 mmHg 38%
12:00 +29°C° 0 mm 6 m/s 753 mmHg 35%
13:00 +30°C° 0 mm 6 m/s 752 mmHg 35%
14:00 +30°C° 0 mm 5 m/s 752 mmHg 35%
15:00 +30°C° 0 mm 5 m/s 752 mmHg 36%
16:00 +29°C° 0 mm 4 m/s 752 mmHg 41%
17:00 +28°C° 0 mm 4 m/s 752 mmHg 47%
18:00 +27°C° 0 mm 3 m/s 752 mmHg 52%
19:00 +25°C° 0 mm 3 m/s 752 mmHg 61%
20:00 +23°C° 0 mm 2 m/s 752 mmHg 69%
21:00 +19°C° 0 mm 2 m/s 752 mmHg 78%
22:00 +19°C° 0 mm 2 m/s 752 mmHg 81%
23:00 +19°C° 0 mm 1 m/s 752 mmHg 85%

17 Mai, Lundi

Heure Température Précipitation Vent Pression Humidité
00:00 +18°C° 0 mm 1 m/s 753 mmHg 89%
01:00 +18°C° 0 mm 1 m/s 753 mmHg 90%
02:00 +18°C° 0 mm 1 m/s 753 mmHg 90%
03:00 +16°C° 0 mm 1 m/s 753 mmHg 90%
04:00 +18°C° 0 mm 1 m/s 753 mmHg 86%
05:00 +19°C° 0 mm 1 m/s 754 mmHg 81%
06:00 +20°C° 0 mm 1 m/s 754 mmHg 77%
07:00 +22°C° 0 mm 1 m/s 754 mmHg 71%
08:00 +24°C° 0 mm 1 m/s 754 mmHg 64%
09:00 +25°C° 0 mm 2 m/s 754 mmHg 58%
10:00 +26°C° 0 mm 2 m/s 754 mmHg 52%
11:00 +27°C° 0 mm 2 m/s 754 mmHg 47%
12:00 +29°C° 0 mm 3 m/s 754 mmHg 41%
13:00 +29°C° 0 mm 3 m/s 753 mmHg 40%
14:00 +29°C° 0 mm 3 m/s 753 mmHg 39%
15:00 +30°C° 0 mm 3 m/s 753 mmHg 38%
16:00 +29°C° 0 mm 2 m/s 753 mmHg 44%
17:00 +28°C° 0 mm 2 m/s 753 mmHg 50%
18:00 +27°C° 0 mm 1 m/s 753 mmHg 56%
19:00 +25°C° 0.1 mm 1 m/s 753 mmHg 61%
20:00 +23°C° 0.1 mm 2 m/s 753 mmHg 66%
21:00 +20°C° 0.1 mm 2 m/s 753 mmHg 71%
22:00 +21°C° 0.1 mm 1 m/s 753 mmHg 71%
23:00 +20°C° 0.1 mm 1 m/s 753 mmHg 71%

18 Mai, Mardi

Heure Température Précipitation Vent Pression Humidité
00:00 +19°C° 0.1 mm 1 m/s 753 mmHg 71%
01:00 +19°C° 0 mm 1 m/s 753 mmHg 73%
02:00 +18°C° 0 mm 1 m/s 753 mmHg 74%
03:00 +18°C° 0 mm 1 m/s 753 mmHg 76%
04:00 +19°C° 0 mm 1 m/s 753 mmHg 73%
05:00 +20°C° 0 mm 1 m/s 753 mmHg 70%
06:00 +21°C° 0 mm 1 m/s 753 mmHg 67%
07:00 +23°C° 0 mm 1 m/s 753 mmHg 60%
08:00 +25°C° 0 mm 1 m/s 753 mmHg 53%
09:00 +27°C° 0 mm 1 m/s 753 mmHg 45%
10:00 +29°C° 0 mm 2 m/s 753 mmHg 41%
11:00 +30°C° 0 mm 2 m/s 753 mmHg 37%
12:00 +31°C° 0 mm 2 m/s 753 mmHg 33%
13:00 +31°C° 0 mm 3 m/s 753 mmHg 31%
14:00 +31°C° 0 mm 3 m/s 753 mmHg 29%
15:00 +31°C° 0 mm 3 m/s 753 mmHg 27%
16:00 +30°C° 0 mm 3 m/s 753 mmHg 33%
17:00 +29°C° 0 mm 2 m/s 753 mmHg 39%
18:00 +28°C° 0 mm 2 m/s 752 mmHg 45%
19:00 +26°C° 0 mm 2 m/s 753 mmHg 48%
20:00 +24°C° 0 mm 2 m/s 753 mmHg 50%
21:00 +21°C° 0 mm 2 m/s 753 mmHg 52%
22:00 +20°C° 0 mm 2 m/s 753 mmHg 53%
23:00 +20°C° 0 mm 2 m/s 753 mmHg 55%

19 Mai, Mercredi

Heure Température Précipitation Vent Pression Humidité
00:00 +19°C° 0 mm 2 m/s 753 mmHg 56%
01:00 +19°C° 0 mm 2 m/s 753 mmHg 58%
02:00 +18°C° 0 mm 2 m/s 753 mmHg 60%
03:00 +18°C° 0 mm 2 m/s 753 mmHg 62%
04:00 +19°C° 0 mm 2 m/s 753 mmHg 61%
05:00 +20°C° 0 mm 2 m/s 753 mmHg 60%
06:00 +21°C° 0 mm 2 m/s 753 mmHg 60%
07:00 +24°C° 0 mm 3 m/s 753 mmHg 54%
08:00 +25°C° 0 mm 3 m/s 753 mmHg 48%
09:00 +27°C° 0 mm 4 m/s 753 mmHg 42%
10:00 +28°C° 0 mm 4 m/s 753 mmHg 39%
11:00 +30°C° 0 mm 4 m/s 753 mmHg 35%
12:00 +32°C° 0 mm 4 m/s 753 mmHg 31%
13:00 +32°C° 0 mm 4 m/s 753 mmHg 31%
14:00 +32°C° 0 mm 4 m/s 753 mmHg 31%
15:00 +32°C° 0 mm 4 m/s 753 mmHg 31%
16:00 +30°C° 0 mm 4 m/s 753 mmHg 38%
17:00 +29°C° 0 mm 3 m/s 753 mmHg 44%
18:00 +28°C° 0 mm 3 m/s 752 mmHg 50%
19:00 +25°C° 0.5 mm 3 m/s 753 mmHg 57%
20:00 +22°C° 0.5 mm 3 m/s 753 mmHg 64%
21:00 +19°C° 0.5 mm 3 m/s 753 mmHg 70%
22:00 +19°C° 0 mm 3 m/s 753 mmHg 70%
23:00 +19°C° 0 mm 3 m/s 753 mmHg 70%
Voir plus

Nous avons besoin de votre consentement

Meteoprog et ses fournisseurs de services peuvent stocker et accéder à des données personnelles telles que des cookies, des identifiants d'appareils ou d'autres technologies similaires sur votre appareil et traiter ces données pour personnaliser le contenu et les publicités, ainsi que pour fournir des fonctionnalités de médias sociaux et analyser le trafic.

  • Stocker et/ou accéder à des informations sur votre appareil

    Des cookies, des identifiants d'appareils ou d'autres informations peuvent être stockés ou accessibles sur votre appareil aux fins indiquées ci-dessus.

  • Annonces et contenus personnalisés, mesure des annonces et des contenus, connaissance de l'audience et développement de produits

    Les annonces et le contenu peuvent être personnalisés en fonction d'un profil. D'autres données peuvent être ajoutées pour mieux personnaliser les annonces et le contenu. Les performances des publicités et du contenu peuvent être mesurées. Il est possible d'obtenir des informations sur le public qui a vu les publicités et le contenu. Ces données peuvent être utilisées pour développer ou améliorer l'expérience de l'utilisateur, les systèmes et les logiciels.

En cliquant sur "J'accepte", vous autorisez l'utilisation de cookies, des identifiants d'appareils, des balises web ou d'autres technologies similaires. Vos paramètres peuvent être modifiés dans le navigateur de votre appareil.

Dans certains cas, des intérêts légitimes peuvent être invoqués plutôt qu'un consentement. Vous pouvez en savoir plus à ce sujet dans notre Politique de confidentialité et de cookies.